owner,sensor,date,latitude,longitude,sea_surface_height_above_sea_level,qcFlag 
COMPS,ioos:station:USF.COMPS:ARP:1,2008-11-01T00:00:00Z,28.4330,-82.6670,-0.219,1111122 
COMPS,ioos:station:USF.COMPS:ARP:1,2008-11-01T00:06:00Z,28.4330,-82.6670,-0.226,1111122 
COMPS,ioos:station:USF.COMPS:ARP:1,2008-11-01T00:12:00Z,28.4330,-82.6670,-0.235,1111122 
COMPS,ioos:station:USF.COMPS:ARP:1,2008-11-01T00:18:00Z,28.4330,-82.6670,-0.243,1111122 
COMPS,ioos:station:USF.COMPS:ARP:1,2008-11-01T00:24:00Z,28.4330,-82.6670,-0.251,1111122 
COMPS,ioos:station:USF.COMPS:ARP:1,2008-11-01T00:30:00Z,28.4330,-82.6670,-0.259,1111122 
COMPS,ioos:station:USF.COMPS:ARP:1,2008-11-01T00:36:00Z,28.4330,-82.6670,-0.266,1111122 
COMPS,ioos:station:USF.COMPS:ARP:1,2008-11-01T00:42:00Z,28.4330,-82.6670,-0.272,1111122 
COMPS,ioos:station:USF.COMPS:ARP:1,2008-11-01T00:48:00Z,28.4330,-82.6670,-0.278,1111122 
COMPS,ioos:station:USF.COMPS:ARP:1,2008-11-01T00:54:00Z,28.4330,-82.6670,-0.283,1111122 
COMPS,ioos:station:USF.COMPS:ARP:1,2008-11-01T01:00:00Z,28.4330,-82.6670,-0.288,1111122 
COMPS,ioos:station:USF.COMPS:ARP:1,2008-11-01T01:06:00Z,28.4330,-82.6670,-0.292,1111122 
COMPS,ioos:station:USF.COMPS:ARP:1,2008-11-01T01:12:00Z,28.4330,-82.6670,-0.294,1111122 
COMPS,ioos:station:USF.COMPS:ARP:1,2008-11-01T01:18:00Z,28.4330,-82.6670,-0.294,1111122 
COMPS,ioos:station:USF.COMPS:ARP:1,2008-11-01T01:24:00Z,28.4330,-82.6670,-0.296,1111122 
COMPS,ioos:station:USF.COMPS:ARP:1,2008-11-01T01:30:00Z,28.4330,-82.6670,-0.294,1111122 
COMPS,ioos:station:USF.COMPS:ARP:1,2008-11-01T01:36:00Z,28.4330,-82.6670,-0.292,1111122 
COMPS,ioos:station:USF.COMPS:ARP:1,2008-11-01T01:42:00Z,28.4330,-82.6670,-0.289,1111122 
COMPS,ioos:station:USF.COMPS:ARP:1,2008-11-01T01:48:00Z,28.4330,-82.6670,-0.285,1111122 
COMPS,ioos:station:USF.COMPS:ARP:1,2008-11-01T01:54:00Z,28.4330,-82.6670,-0.278,1111122 
COMPS,ioos:station:USF.COMPS:ARP:1,2008-11-01T02:00:00Z,28.4330,-82.6670,-0.27,1111122 
COMPS,ioos:station:USF.COMPS:ARP:1,2008-11-01T02:06:00Z,28.4330,-82.6670,-0.261,1111122 
COMPS,ioos:station:USF.COMPS:ARP:1,2008-11-01T02:12:00Z,28.4330,-82.6670,-0.25,1111122 
COMPS,ioos:station:USF.COMPS:ARP:1,2008-11-01T02:18:00Z,28.4330,-82.6670,-0.24,1111122 
COMPS,ioos:station:USF.COMPS:ARP:1,2008-11-01T02:24:00Z,28.4330,-82.6670,-0.229,1111122 
COMPS,ioos:station:USF.COMPS:ARP:1,2008-11-01T02:30:00Z,28.4330,-82.6670,-0.218,1111122 
COMPS,ioos:station:USF.COMPS:ARP:1,2008-11-01T02:36:00Z,28.4330,-82.6670,-0.207,1111122 
COMPS,ioos:station:USF.COMPS:ARP:1,2008-11-01T02:42:00Z,28.4330,-82.6670,-0.196,1111122 
COMPS,ioos:station:USF.COMPS:ARP:1,2008-11-01T02:48:00Z,28.4330,-82.6670,-0.183,1111122 
COMPS,ioos:station:USF.COMPS:ARP:1,2008-11-01T02:54:00Z,28.4330,-82.6670,-0.171,1111122 
COMPS,ioos:station:USF.COMPS:ARP:1,2008-11-01T03:00:00Z,28.4330,-82.6670,-0.157,1111122 
COMPS,ioos:station:USF.COMPS:ARP:1,2008-11-01T03:06:00Z,28.4330,-82.6670,-0.144,1111122 
COMPS,ioos:station:USF.COMPS:ARP:1,2008-11-01T03:12:00Z,28.4330,-82.6670,-0.129,1111122 
COMPS,ioos:station:USF.COMPS:ARP:1,2008-11-01T03:18:00Z,28.4330,-82.6670,-0.115,1111122 
COMPS,ioos:station:USF.COMPS:ARP:1,2008-11-01T03:24:00Z,28.4330,-82.6670,-0.099,1111122 
COMPS,ioos:station:USF.COMPS:ARP:1,2008-11-01T03:30:00Z,28.4330,-82.6670,-0.083,1111122 
COMPS,ioos:station:USF.COMPS:ARP:1,2008-11-01T03:36:00Z,28.4330,-82.6670,-0.066,1111122 
COMPS,ioos:station:USF.COMPS:ARP:1,2008-11-01T03:42:00Z,28.4330,-82.6670,-0.049,1111122 
COMPS,ioos:station:USF.COMPS:ARP:1,2008-11-01T03:48:00Z,28.4330,-82.6670,-0.032,1111122 
COMPS,ioos:station:USF.COMPS:ARP:1,2008-11-01T03:54:00Z,28.4330,-82.6670,-0.015,1111122 
COMPS,ioos:station:USF.COMPS:ARP:1,2008-11-01T04:00:00Z,28.4330,-82.6670,0.003,1111122 
COMPS,ioos:station:USF.COMPS:ARP:1,2008-11-01T04:06:00Z,28.4330,-82.6670,0.02,1111122 
COMPS,ioos:station:USF.COMPS:ARP:1,2008-11-01T04:12:00Z,28.4330,-82.6670,0.038,1111122 
COMPS,ioos:station:USF.COMPS:ARP:1,2008-11-01T04:18:00Z,28.4330,-82.6670,0.055,1111122 
COMPS,ioos:station:USF.COMPS:ARP:1,2008-11-01T04:24:00Z,28.4330,-82.6670,0.072,1111122 
COMPS,ioos:station:USF.COMPS:ARP:1,2008-11-01T04:30:00Z,28.4330,-82.6670,0.09,1111122 
COMPS,ioos:station:USF.COMPS:ARP:1,2008-11-01T04:36:00Z,28.4330,-82.6670,0.108,1111122 
COMPS,ioos:station:USF.COMPS:ARP:1,2008-11-01T04:42:00Z,28.4330,-82.6670,0.125,1111122 
COMPS,ioos:station:USF.COMPS:ARP:1,2008-11-01T04:48:00Z,28.4330,-82.6670,0.142,1111122 
COMPS,ioos:station:USF.COMPS:ARP:1,2008-11-01T04:54:00Z,28.4330,-82.6670,0.159,1111122 
COMPS,ioos:station:USF.COMPS:ARP:1,2008-11-01T05:00:00Z,28.4330,-82.6670,0.174,1111122 
COMPS,ioos:station:USF.COMPS:ARP:1,2008-11-01T05:06:00Z,28.4330,-82.6670,0.189,1111122 
COMPS,ioos:station:USF.COMPS:ARP:1,2008-11-01T05:12:00Z,28.4330,-82.6670,0.203,1111122 
COMPS,ioos:station:USF.COMPS:ARP:1,2008-11-01T05:18:00Z,28.4330,-82.6670,0.216,1111122 
COMPS,ioos:station:USF.COMPS:ARP:1,2008-11-01T05:24:00Z,28.4330,-82.6670,0.229,1111122 
COMPS,ioos:station:USF.COMPS:ARP:1,2008-11-01T05:30:00Z,28.4330,-82.6670,0.241,1111122 
COMPS,ioos:station:USF.COMPS:ARP:1,2008-11-01T05:36:00Z,28.4330,-82.6670,0.252,1111122 
COMPS,ioos:station:USF.COMPS:ARP:1,2008-11-01T05:42:00Z,28.4330,-82.6670,0.263,1111122 
COMPS,ioos:station:USF.COMPS:ARP:1,2008-11-01T05:48:00Z,28.4330,-82.6670,0.273,1111122 
COMPS,ioos:station:USF.COMPS:ARP:1,2008-11-01T05:54:00Z,28.4330,-82.6670,0.282,1111122 
COMPS,ioos:station:USF.COMPS:ARP:1,2008-11-01T06:00:00Z,28.4330,-82.6670,0.288,1111122 
COMPS,ioos:station:USF.COMPS:ARP:1,2008-11-01T06:06:00Z,28.4330,-82.6670,0.294,1111122 
COMPS,ioos:station:USF.COMPS:ARP:1,2008-11-01T06:12:00Z,28.4330,-82.6670,0.296,1111122 
COMPS,ioos:station:USF.COMPS:ARP:1,2008-11-01T06:18:00Z,28.4330,-82.6670,0.294,1111122 
COMPS,ioos:station:USF.COMPS:ARP:1,2008-11-01T06:24:00Z,28.4330,-82.6670,0.293,1111122 
COMPS,ioos:station:USF.COMPS:ARP:1,2008-11-01T06:30:00Z,28.4330,-82.6670,0.288,1111122 
COMPS,ioos:station:USF.COMPS:ARP:1,2008-11-01T06:36:00Z,28.4330,-82.6670,0.282,1111122 
COMPS,ioos:station:USF.COMPS:ARP:1,2008-11-01T06:42:00Z,28.4330,-82.6670,0.275,1111122 
COMPS,ioos:station:USF.COMPS:ARP:1,2008-11-01T06:48:00Z,28.4330,-82.6670,0.27,1111122 
COMPS,ioos:station:USF.COMPS:ARP:1,2008-11-01T06:54:00Z,28.4330,-82.6670,0.267,1111122 
COMPS,ioos:station:USF.COMPS:ARP:1,2008-11-01T07:00:00Z,28.4330,-82.6670,0.26,1111122 
COMPS,ioos:station:USF.COMPS:ARP:1,2008-11-01T07:06:00Z,28.4330,-82.6670,0.251,1111122 
COMPS,ioos:station:USF.COMPS:ARP:1,2008-11-01T07:12:00Z,28.4330,-82.6670,0.244,1111122 
COMPS,ioos:station:USF.COMPS:ARP:1,2008-11-01T07:18:00Z,28.4330,-82.6670,0.238,1111122 
COMPS,ioos:station:USF.COMPS:ARP:1,2008-11-01T07:24:00Z,28.4330,-82.6670,0.231,1111122 
COMPS,ioos:station:USF.COMPS:ARP:1,2008-11-01T07:30:00Z,28.4330,-82.6670,0.22,1111122 
COMPS,ioos:station:USF.COMPS:ARP:1,2008-11-01T07:36:00Z,28.4330,-82.6670,0.213,1111122 
COMPS,ioos:station:USF.COMPS:ARP:1,2008-11-01T07:42:00Z,28.4330,-82.6670,0.206,1111122 
COMPS,ioos:station:USF.COMPS:ARP:1,2008-11-01T07:48:00Z,28.4330,-82.6670,0.198,1111122 
COMPS,ioos:station:USF.COMPS:ARP:1,2008-11-01T07:54:00Z,28.4330,-82.6670,0.192,1111122 
COMPS,ioos:station:USF.COMPS:ARP:1,2008-11-01T08:00:00Z,28.4330,-82.6670,0.184,1111122 
COMPS,ioos:station:USF.COMPS:ARP:1,2008-11-01T08:06:00Z,28.4330,-82.6670,0.174,1111122 
COMPS,ioos:station:USF.COMPS:ARP:1,2008-11-01T08:12:00Z,28.4330,-82.6670,0.164,1111122 
COMPS,ioos:station:USF.COMPS:ARP:1,2008-11-01T08:18:00Z,28.4330,-82.6670,0.154,1111122 
COMPS,ioos:station:USF.COMPS:ARP:1,2008-11-01T08:24:00Z,28.4330,-82.6670,0.142,1111122 
COMPS,ioos:station:USF.COMPS:ARP:1,2008-11-01T08:30:00Z,28.4330,-82.6670,0.13,1111122 
COMPS,ioos:station:USF.COMPS:ARP:1,2008-11-01T08:36:00Z,28.4330,-82.6670,0.117,1111122 
COMPS,ioos:station:USF.COMPS:ARP:1,2008-11-01T08:42:00Z,28.4330,-82.6670,0.104,1111122 
COMPS,ioos:station:USF.COMPS:ARP:1,2008-11-01T08:48:00Z,28.4330,-82.6670,0.092,1111122 
COMPS,ioos:station:USF.COMPS:ARP:1,2008-11-01T08:54:00Z,28.4330,-82.6670,0.079,1111122 
COMPS,ioos:station:USF.COMPS:ARP:1,2008-11-01T09:00:00Z,28.4330,-82.6670,0.064,1111122 
COMPS,ioos:station:USF.COMPS:ARP:1,2008-11-01T09:06:00Z,28.4330,-82.6670,0.051,1111122 
COMPS,ioos:station:USF.COMPS:ARP:1,2008-11-01T09:12:00Z,28.4330,-82.6670,0.038,1111122 
COMPS,ioos:station:USF.COMPS:ARP:1,2008-11-01T09:18:00Z,28.4330,-82.6670,0.023,1111122 
COMPS,ioos:station:USF.COMPS:ARP:1,2008-11-01T09:24:00Z,28.4330,-82.6670,0.009,1111122 
COMPS,ioos:station:USF.COMPS:ARP:1,2008-11-01T09:30:00Z,28.4330,-82.6670,-0.004,1111122 
COMPS,ioos:station:USF.COMPS:ARP:1,2008-11-01T09:36:00Z,28.4330,-82.6670,-0.018,1111122 
COMPS,ioos:station:USF.COMPS:ARP:1,2008-11-01T09:42:00Z,28.4330,-82.6670,-0.032,1111122 
COMPS,ioos:station:USF.COMPS:ARP:1,2008-11-01T09:48:00Z,28.4330,-82.6670,-0.046,1111122 
COMPS,ioos:station:USF.COMPS:ARP:1,2008-11-01T09:54:00Z,28.4330,-82.6670,-0.059,1111122 
COMPS,ioos:station:USF.COMPS:ARP:1,2008-11-01T10:00:00Z,28.4330,-82.6670,-0.073,1111122 
COMPS,ioos:station:USF.COMPS:ARP:1,2008-11-01T10:06:00Z,28.4330,-82.6670,-0.088,1111122 
COMPS,ioos:station:USF.COMPS:ARP:1,2008-11-01T10:12:00Z,28.4330,-82.6670,-0.102,1111122 
COMPS,ioos:station:USF.COMPS:ARP:1,2008-11-01T10:18:00Z,28.4330,-82.6670,-0.116,1111122 
COMPS,ioos:station:USF.COMPS:ARP:1,2008-11-01T10:24:00Z,28.4330,-82.6670,-0.13,1111122 
COMPS,ioos:station:USF.COMPS:ARP:1,2008-11-01T10:30:00Z,28.4330,-82.6670,-0.144,1111122 
COMPS,ioos:station:USF.COMPS:ARP:1,2008-11-01T10:36:00Z,28.4330,-82.6670,-0.158,1111122 
COMPS,ioos:station:USF.COMPS:ARP:1,2008-11-01T10:42:00Z,28.4330,-82.6670,-0.173,1111122 
COMPS,ioos:station:USF.COMPS:ARP:1,2008-11-01T10:48:00Z,28.4330,-82.6670,-0.187,1111122 
COMPS,ioos:station:USF.COMPS:ARP:1,2008-11-01T10:54:00Z,28.4330,-82.6670,-0.201,1111122 
COMPS,ioos:station:USF.COMPS:ARP:1,2008-11-01T11:00:00Z,28.4330,-82.6670,-0.215,1111122 
COMPS,ioos:station:USF.COMPS:ARP:1,2008-11-01T11:06:00Z,28.4330,-82.6670,-0.229,1111122 
COMPS,ioos:station:USF.COMPS:ARP:1,2008-11-01T11:12:00Z,28.4330,-82.6670,-0.242,1111122 
COMPS,ioos:station:USF.COMPS:ARP:1,2008-11-01T11:18:00Z,28.4330,-82.6670,-0.256,1111122 
COMPS,ioos:station:USF.COMPS:ARP:1,2008-11-01T11:24:00Z,28.4330,-82.6670,-0.27,1111122 
COMPS,ioos:station:USF.COMPS:ARP:1,2008-11-01T11:30:00Z,28.4330,-82.6670,-0.283,1111122 
COMPS,ioos:station:USF.COMPS:ARP:1,2008-11-01T11:36:00Z,28.4330,-82.6670,-0.295,1111122 
COMPS,ioos:station:USF.COMPS:ARP:1,2008-11-01T11:42:00Z,28.4330,-82.6670,-0.307,1111122 
COMPS,ioos:station:USF.COMPS:ARP:1,2008-11-01T11:48:00Z,28.4330,-82.6670,-0.319,1111122 
COMPS,ioos:station:USF.COMPS:ARP:1,2008-11-01T11:54:00Z,28.4330,-82.6670,-0.331,1111122 
COMPS,ioos:station:USF.COMPS:ARP:1,2008-11-01T12:00:00Z,28.4330,-82.6670,-0.343,1111122 
COMPS,ioos:station:USF.COMPS:ARP:1,2008-11-01T12:06:00Z,28.4330,-82.6670,-0.354,1111122 
COMPS,ioos:station:USF.COMPS:ARP:1,2008-11-01T12:12:00Z,28.4330,-82.6670,-0.365,1111122 
COMPS,ioos:station:USF.COMPS:ARP:1,2008-11-01T12:18:00Z,28.4330,-82.6670,-0.376,1111122 
COMPS,ioos:station:USF.COMPS:ARP:1,2008-11-01T12:24:00Z,28.4330,-82.6670,-0.387,1111122 
COMPS,ioos:station:USF.COMPS:ARP:1,2008-11-01T12:30:00Z,28.4330,-82.6670,-0.397,1111122 
COMPS,ioos:station:USF.COMPS:ARP:1,2008-11-01T12:36:00Z,28.4330,-82.6670,-0.408,1111122 
COMPS,ioos:station:USF.COMPS:ARP:1,2008-11-01T12:42:00Z,28.4330,-82.6670,-0.416,1111122 
COMPS,ioos:station:USF.COMPS:ARP:1,2008-11-01T12:48:00Z,28.4330,-82.6670,-0.424,1111122 
COMPS,ioos:station:USF.COMPS:ARP:1,2008-11-01T12:54:00Z,28.4330,-82.6670,-0.432,1111122 
COMPS,ioos:station:USF.COMPS:ARP:1,2008-11-01T13:00:00Z,28.4330,-82.6670,-0.442,1111122 
COMPS,ioos:station:USF.COMPS:ARP:1,2008-11-01T13:06:00Z,28.4330,-82.6670,-0.451,1111122 
COMPS,ioos:station:USF.COMPS:ARP:1,2008-11-01T13:12:00Z,28.4330,-82.6670,-0.46,1111122 
COMPS,ioos:station:USF.COMPS:ARP:1,2008-11-01T13:18:00Z,28.4330,-82.6670,-0.469,1111122 
COMPS,ioos:station:USF.COMPS:ARP:1,2008-11-01T13:24:00Z,28.4330,-82.6670,-0.476,1111122 
COMPS,ioos:station:USF.COMPS:ARP:1,2008-11-01T13:30:00Z,28.4330,-82.6670,-0.482,1111122 
COMPS,ioos:station:USF.COMPS:ARP:1,2008-11-01T13:36:00Z,28.4330,-82.6670,-0.487,1111122 
COMPS,ioos:station:USF.COMPS:ARP:1,2008-11-01T13:42:00Z,28.4330,-82.6670,-0.492,1111122 
COMPS,ioos:station:USF.COMPS:ARP:1,2008-11-01T13:48:00Z,28.4330,-82.6670,-0.496,1111122 
COMPS,ioos:station:USF.COMPS:ARP:1,2008-11-01T13:54:00Z,28.4330,-82.6670,-0.501,1111122 
COMPS,ioos:station:USF.COMPS:ARP:1,2008-11-01T14:00:00Z,28.4330,-82.6670,-0.507,1111122 
COMPS,ioos:station:USF.COMPS:ARP:1,2008-11-01T14:06:00Z,28.4330,-82.6670,-0.512,1111122 
COMPS,ioos:station:USF.COMPS:ARP:1,2008-11-01T14:12:00Z,28.4330,-82.6670,-0.517,1111122 
COMPS,ioos:station:USF.COMPS:ARP:1,2008-11-01T14:18:00Z,28.4330,-82.6670,-0.524,1111122 
COMPS,ioos:station:USF.COMPS:ARP:1,2008-11-01T14:24:00Z,28.4330,-82.6670,-0.53,1111122 
COMPS,ioos:station:USF.COMPS:ARP:1,2008-11-01T14:30:00Z,28.4330,-82.6670,-0.535,1111122 
COMPS,ioos:station:USF.COMPS:ARP:1,2008-11-01T14:36:00Z,28.4330,-82.6670,-0.542,1111122 
COMPS,ioos:station:USF.COMPS:ARP:1,2008-11-01T14:42:00Z,28.4330,-82.6670,-0.548,1111122 
COMPS,ioos:station:USF.COMPS:ARP:1,2008-11-01T14:48:00Z,28.4330,-82.6670,-0.554,1111122 
COMPS,ioos:station:USF.COMPS:ARP:1,2008-11-01T14:54:00Z,28.4330,-82.6670,-0.557,1111122 
COMPS,ioos:station:USF.COMPS:ARP:1,2008-11-01T15:00:00Z,28.4330,-82.6670,-0.561,1111122 
COMPS,ioos:station:USF.COMPS:ARP:1,2008-11-01T15:06:00Z,28.4330,-82.6670,-0.563,1111122 
COMPS,ioos:station:USF.COMPS:ARP:1,2008-11-01T15:12:00Z,28.4330,-82.6670,-0.567,1111122 
COMPS,ioos:station:USF.COMPS:ARP:1,2008-11-01T15:18:00Z,28.4330,-82.6670,-0.571,1111122 
COMPS,ioos:station:USF.COMPS:ARP:1,2008-11-01T15:24:00Z,28.4330,-82.6670,-0.563,1111122 
COMPS,ioos:station:USF.COMPS:ARP:1,2008-11-01T15:30:00Z,28.4330,-82.6670,-0.561,1111122 
COMPS,ioos:station:USF.COMPS:ARP:1,2008-11-01T15:36:00Z,28.4330,-82.6670,-0.56,1111122 
COMPS,ioos:station:USF.COMPS:ARP:1,2008-11-01T15:42:00Z,28.4330,-82.6670,-0.562,1111122 
COMPS,ioos:station:USF.COMPS:ARP:1,2008-11-01T15:48:00Z,28.4330,-82.6670,-0.566,1111122 
COMPS,ioos:station:USF.COMPS:ARP:1,2008-11-01T15:54:00Z,28.4330,-82.6670,-0.562,1111122 
COMPS,ioos:station:USF.COMPS:ARP:1,2008-11-01T16:00:00Z,28.4330,-82.6670,-0.559,1111122 
COMPS,ioos:station:USF.COMPS:ARP:1,2008-11-01T16:06:00Z,28.4330,-82.6670,-0.557,1111122 
COMPS,ioos:station:USF.COMPS:ARP:1,2008-11-01T16:12:00Z,28.4330,-82.6670,-0.556,1111122 
COMPS,ioos:station:USF.COMPS:ARP:1,2008-11-01T16:18:00Z,28.4330,-82.6670,-0.557,1111122 
COMPS,ioos:station:USF.COMPS:ARP:1,2008-11-01T16:24:00Z,28.4330,-82.6670,-0.558,1111122 
COMPS,ioos:station:USF.COMPS:ARP:1,2008-11-01T16:30:00Z,28.4330,-82.6670,-0.558,1111122 
COMPS,ioos:station:USF.COMPS:ARP:1,2008-11-01T16:36:00Z,28.4330,-82.6670,-0.558,1111122 
COMPS,ioos:station:USF.COMPS:ARP:1,2008-11-01T16:42:00Z,28.4330,-82.6670,-0.559,1111122 
COMPS,ioos:station:USF.COMPS:ARP:1,2008-11-01T16:48:00Z,28.4330,-82.6670,-0.56,1111122 
COMPS,ioos:station:USF.COMPS:ARP:1,2008-11-01T16:54:00Z,28.4330,-82.6670,-0.563,1111122 
COMPS,ioos:station:USF.COMPS:ARP:1,2008-11-01T17:00:00Z,28.4330,-82.6670,-0.613,1111122 
COMPS,ioos:station:USF.COMPS:ARP:1,2008-11-01T17:06:00Z,28.4330,-82.6670,-0.576,1111122 
COMPS,ioos:station:USF.COMPS:ARP:1,2008-11-01T17:12:00Z,28.4330,-82.6670,-0.577,1111122 
COMPS,ioos:station:USF.COMPS:ARP:1,2008-11-01T17:18:00Z,28.4330,-82.6670,-0.584,1111122 
COMPS,ioos:station:USF.COMPS:ARP:1,2008-11-01T17:24:00Z,28.4330,-82.6670,-0.58,1111122 
COMPS,ioos:station:USF.COMPS:ARP:1,2008-11-01T17:30:00Z,28.4330,-82.6670,-0.571,1111122 
COMPS,ioos:station:USF.COMPS:ARP:1,2008-11-01T17:36:00Z,28.4330,-82.6670,-0.56,1111122 
COMPS,ioos:station:USF.COMPS:ARP:1,2008-11-01T17:42:00Z,28.4330,-82.6670,-0.546,1111122 
COMPS,ioos:station:USF.COMPS:ARP:1,2008-11-01T17:48:00Z,28.4330,-82.6670,-0.533,1111122 
COMPS,ioos:station:USF.COMPS:ARP:1,2008-11-01T17:54:00Z,28.4330,-82.6670,-0.518,1111122 
COMPS,ioos:station:USF.COMPS:ARP:1,2008-11-01T18:00:00Z,28.4330,-82.6670,-0.498,1111122 
COMPS,ioos:station:USF.COMPS:ARP:1,2008-11-01T18:06:00Z,28.4330,-82.6670,-0.474,1111122 
COMPS,ioos:station:USF.COMPS:ARP:1,2008-11-01T18:12:00Z,28.4330,-82.6670,-0.449,1111122 
COMPS,ioos:station:USF.COMPS:ARP:1,2008-11-01T18:18:00Z,28.4330,-82.6670,-0.422,1111122 
COMPS,ioos:station:USF.COMPS:ARP:1,2008-11-01T18:24:00Z,28.4330,-82.6670,-0.393,1111122 
COMPS,ioos:station:USF.COMPS:ARP:1,2008-11-01T18:30:00Z,28.4330,-82.6670,-0.365,1111122 
COMPS,ioos:station:USF.COMPS:ARP:1,2008-11-01T18:36:00Z,28.4330,-82.6670,-0.336,1111122 
COMPS,ioos:station:USF.COMPS:ARP:1,2008-11-01T18:42:00Z,28.4330,-82.6670,-0.305,1111122 
COMPS,ioos:station:USF.COMPS:ARP:1,2008-11-01T18:48:00Z,28.4330,-82.6670,-0.274,1111122 
COMPS,ioos:station:USF.COMPS:ARP:1,2008-11-01T18:54:00Z,28.4330,-82.6670,-0.242,1111122 
COMPS,ioos:station:USF.COMPS:ARP:1,2008-11-01T19:00:00Z,28.4330,-82.6670,-0.209,1111122 
COMPS,ioos:station:USF.COMPS:ARP:1,2008-11-01T19:06:00Z,28.4330,-82.6670,-0.175,1111122 
COMPS,ioos:station:USF.COMPS:ARP:1,2008-11-01T19:12:00Z,28.4330,-82.6670,-0.143,1111122 
COMPS,ioos:station:USF.COMPS:ARP:1,2008-11-01T19:18:00Z,28.4330,-82.6670,-0.113,1111122 
COMPS,ioos:station:USF.COMPS:ARP:1,2008-11-01T19:24:00Z,28.4330,-82.6670,-0.087,1111122 
COMPS,ioos:station:USF.COMPS:ARP:1,2008-11-01T19:30:00Z,28.4330,-82.6670,-0.061,1111122 
COMPS,ioos:station:USF.COMPS:ARP:1,2008-11-01T19:36:00Z,28.4330,-82.6670,-0.038,1111122 
COMPS,ioos:station:USF.COMPS:ARP:1,2008-11-01T19:42:00Z,28.4330,-82.6670,-0.018,1111122 
COMPS,ioos:station:USF.COMPS:ARP:1,2008-11-01T19:48:00Z,28.4330,-82.6670,0.003,1111122 
COMPS,ioos:station:USF.COMPS:ARP:1,2008-11-01T19:54:00Z,28.4330,-82.6670,0.02,1111122 
COMPS,ioos:station:USF.COMPS:ARP:1,2008-11-01T20:00:00Z,28.4330,-82.6670,0.032,1111122 
COMPS,ioos:station:USF.COMPS:ARP:1,2008-11-01T20:06:00Z,28.4330,-82.6670,0.046,1111122 
COMPS,ioos:station:USF.COMPS:ARP:1,2008-11-01T20:12:00Z,28.4330,-82.6670,0.06,1111122 
COMPS,ioos:station:USF.COMPS:ARP:1,2008-11-01T20:18:00Z,28.4330,-82.6670,0.068,1111122 
COMPS,ioos:station:USF.COMPS:ARP:1,2008-11-01T20:24:00Z,28.4330,-82.6670,0.076,1111122 
COMPS,ioos:station:USF.COMPS:ARP:1,2008-11-01T20:30:00Z,28.4330,-82.6670,0.086,1111122 
COMPS,ioos:station:USF.COMPS:ARP:1,2008-11-01T20:36:00Z,28.4330,-82.6670,0.089,1111122 
COMPS,ioos:station:USF.COMPS:ARP:1,2008-11-01T20:42:00Z,28.4330,-82.6670,0.09,1111122 
COMPS,ioos:station:USF.COMPS:ARP:1,2008-11-01T20:48:00Z,28.4330,-82.6670,0.092,1111122 
COMPS,ioos:station:USF.COMPS:ARP:1,2008-11-01T20:54:00Z,28.4330,-82.6670,0.091,1111122 
COMPS,ioos:station:USF.COMPS:ARP:1,2008-11-01T21:00:00Z,28.4330,-82.6670,0.086,1111122 
COMPS,ioos:station:USF.COMPS:ARP:1,2008-11-01T21:06:00Z,28.4330,-82.6670,0.081,1111122 
COMPS,ioos:station:USF.COMPS:ARP:1,2008-11-01T21:12:00Z,28.4330,-82.6670,0.075,1111122 
COMPS,ioos:station:USF.COMPS:ARP:1,2008-11-01T21:18:00Z,28.4330,-82.6670,0.073,1111122 
COMPS,ioos:station:USF.COMPS:ARP:1,2008-11-01T21:24:00Z,28.4330,-82.6670,0.069,1111122 
COMPS,ioos:station:USF.COMPS:ARP:1,2008-11-01T21:30:00Z,28.4330,-82.6670,0.069,1111122 
COMPS,ioos:station:USF.COMPS:ARP:1,2008-11-01T21:36:00Z,28.4330,-82.6670,0.07,1111122 
COMPS,ioos:station:USF.COMPS:ARP:1,2008-11-01T21:42:00Z,28.4330,-82.6670,0.065,1111122 
COMPS,ioos:station:USF.COMPS:ARP:1,2008-11-01T21:48:00Z,28.4330,-82.6670,0.058,1111122 
COMPS,ioos:station:USF.COMPS:ARP:1,2008-11-01T21:54:00Z,28.4330,-82.6670,0.052,1111122 
COMPS,ioos:station:USF.COMPS:ARP:1,2008-11-01T22:00:00Z,28.4330,-82.6670,0.045,1111122 
COMPS,ioos:station:USF.COMPS:ARP:1,2008-11-01T22:06:00Z,28.4330,-82.6670,0.038,1111122 
COMPS,ioos:station:USF.COMPS:ARP:1,2008-11-01T22:12:00Z,28.4330,-82.6670,0.031,1111122 
COMPS,ioos:station:USF.COMPS:ARP:1,2008-11-01T22:18:00Z,28.4330,-82.6670,0.024,1111122 
COMPS,ioos:station:USF.COMPS:ARP:1,2008-11-01T22:24:00Z,28.4330,-82.6670,0.02,1111122 
COMPS,ioos:station:USF.COMPS:ARP:1,2008-11-01T22:30:00Z,28.4330,-82.6670,0.017,1111122 
COMPS,ioos:station:USF.COMPS:ARP:1,2008-11-01T22:36:00Z,28.4330,-82.6670,0.013,1111122 
COMPS,ioos:station:USF.COMPS:ARP:1,2008-11-01T22:42:00Z,28.4330,-82.6670,0.007,1111122 
COMPS,ioos:station:USF.COMPS:ARP:1,2008-11-01T22:48:00Z,28.4330,-82.6670,0.0,1114422 
COMPS,ioos:station:USF.COMPS:ARP:1,2008-11-01T22:54:00Z,28.4330,-82.6670,-0.009,1111122 
COMPS,ioos:station:USF.COMPS:ARP:1,2008-11-01T23:00:00Z,28.4330,-82.6670,-0.018,1111122 
COMPS,ioos:station:USF.COMPS:ARP:1,2008-11-01T23:06:00Z,28.4330,-82.6670,-0.031,1111122 
COMPS,ioos:station:USF.COMPS:ARP:1,2008-11-01T23:12:00Z,28.4330,-82.6670,-0.038,1111122 
COMPS,ioos:station:USF.COMPS:ARP:1,2008-11-01T23:18:00Z,28.4330,-82.6670,-0.049,1111122 
COMPS,ioos:station:USF.COMPS:ARP:1,2008-11-01T23:24:00Z,28.4330,-82.6670,-0.056,1111122 
COMPS,ioos:station:USF.COMPS:ARP:1,2008-11-01T23:30:00Z,28.4330,-82.6670,-0.063,1111122 
COMPS,ioos:station:USF.COMPS:ARP:1,2008-11-01T23:36:00Z,28.4330,-82.6670,-0.072,1111122 
COMPS,ioos:station:USF.COMPS:ARP:1,2008-11-01T23:42:00Z,28.4330,-82.6670,-0.081,1111122 
COMPS,ioos:station:USF.COMPS:ARP:1,2008-11-01T23:48:00Z,28.4330,-82.6670,-0.09,1111122 
COMPS,ioos:station:USF.COMPS:ARP:1,2008-11-01T23:54:00Z,28.4330,-82.6670,-0.098,1111122 
COMPS,ioos:station:USF.COMPS:ARP:1,2008-11-02T00:00:00Z,28.4330,-82.6670,-0.105,1111122 
COMPS,ioos:station:USF.COMPS:ARP:1,2008-11-02T00:06:00Z,28.4330,-82.6670,-0.114,1111122 
COMPS,ioos:station:USF.COMPS:ARP:1,2008-11-02T00:12:00Z,28.4330,-82.6670,-0.122,1111122 
COMPS,ioos:station:USF.COMPS:ARP:1,2008-11-02T00:18:00Z,28.4330,-82.6670,-0.133,1111122 
COMPS,ioos:station:USF.COMPS:ARP:1,2008-11-02T00:24:00Z,28.4330,-82.6670,-0.143,1111122 
COMPS,ioos:station:USF.COMPS:ARP:1,2008-11-02T00:30:00Z,28.4330,-82.6670,-0.151,1111122 
COMPS,ioos:station:USF.COMPS:ARP:1,2008-11-02T00:36:00Z,28.4330,-82.6670,-0.16,1111122 
COMPS,ioos:station:USF.COMPS:ARP:1,2008-11-02T00:42:00Z,28.4330,-82.6670,-0.168,1111122 
COMPS,ioos:station:USF.COMPS:ARP:1,2008-11-02T00:48:00Z,28.4330,-82.6670,-0.174,1111122 
COMPS,ioos:station:USF.COMPS:ARP:1,2008-11-02T00:54:00Z,28.4330,-82.6670,-0.181,1111122 
COMPS,ioos:station:USF.COMPS:ARP:1,2008-11-02T01:00:00Z,28.4330,-82.6670,-0.186,1111122 
COMPS,ioos:station:USF.COMPS:ARP:1,2008-11-02T01:06:00Z,28.4330,-82.6670,-0.191,1111122 
COMPS,ioos:station:USF.COMPS:ARP:1,2008-11-02T01:12:00Z,28.4330,-82.6670,-0.197,1111122 
COMPS,ioos:station:USF.COMPS:ARP:1,2008-11-02T01:18:00Z,28.4330,-82.6670,-0.2,1111122 
COMPS,ioos:station:USF.COMPS:ARP:1,2008-11-02T01:24:00Z,28.4330,-82.6670,-0.203,1111122 
COMPS,ioos:station:USF.COMPS:ARP:1,2008-11-02T01:30:00Z,28.4330,-82.6670,-0.206,1111122 
COMPS,ioos:station:USF.COMPS:ARP:1,2008-11-02T01:36:00Z,28.4330,-82.6670,-0.209,1111122 
COMPS,ioos:station:USF.COMPS:ARP:1,2008-11-02T01:42:00Z,28.4330,-82.6670,-0.21,1111122 
COMPS,ioos:station:USF.COMPS:ARP:1,2008-11-02T01:48:00Z,28.4330,-82.6670,-0.21,1111122 
COMPS,ioos:station:USF.COMPS:ARP:1,2008-11-02T01:54:00Z,28.4330,-82.6670,-0.206,1111122 
COMPS,ioos:station:USF.COMPS:ARP:1,2008-11-02T02:00:00Z,28.4330,-82.6670,-0.2,1111122 
COMPS,ioos:station:USF.COMPS:ARP:1,2008-11-02T02:06:00Z,28.4330,-82.6670,-0.189,1111122 
COMPS,ioos:station:USF.COMPS:ARP:1,2008-11-02T02:12:00Z,28.4330,-82.6670,-0.178,1111122 
COMPS,ioos:station:USF.COMPS:ARP:1,2008-11-02T02:18:00Z,28.4330,-82.6670,-0.166,1111122 
COMPS,ioos:station:USF.COMPS:ARP:1,2008-11-02T02:24:00Z,28.4330,-82.6670,-0.153,1111122 
COMPS,ioos:station:USF.COMPS:ARP:1,2008-11-02T02:30:00Z,28.4330,-82.6670,-0.142,1111122 
COMPS,ioos:station:USF.COMPS:ARP:1,2008-11-02T02:36:00Z,28.4330,-82.6670,-0.128,1111122 
COMPS,ioos:station:USF.COMPS:ARP:1,2008-11-02T02:42:00Z,28.4330,-82.6670,-0.117,1111122 
COMPS,ioos:station:USF.COMPS:ARP:1,2008-11-02T02:48:00Z,28.4330,-82.6670,-0.105,1111122 
COMPS,ioos:station:USF.COMPS:ARP:1,2008-11-02T02:54:00Z,28.4330,-82.6670,-0.092,1111122 